Regional Weather Roundup
Issued by NWS Albany, NY

Home | Current Version | Previous Version | Text Only | Print | Product List | Glossary On
Versions: 1 2 3 4 5 6 7 8 9 10 11 12 13 14 15 16 17 18 19 20 21 22 23 24 25 26 27 28 29 30 31 32 33 34 35 36 37 38 39 40 41 42 43 44 45 46 47 48 49 50
000
ASUS41 KALY 020910
RWRALY

NEW YORK STATE HOURLY WEATHER ROUNDUP
NATIONAL WEATHER SERVICE ALBANY NY
500 AM EDT TUE SEP 02 2014

NOTE: "FAIR" INDICATES FEW OR NO CLOUDS BELOW 12,000 FEET WITH NO
SIGNIFICANT WEATHER AND/OR NO OBSTRUCTIONS TO VISIBILITY.

NYZ032-033-038>043-046>054-057>066-NYZ062>081-021000-
EAST


CITY           SKY/WX    TMP DP  RH WIND       PRES   REMARKS
ALBANY         PTCLDY    73  70  90 S10       29.86F
GLENS FALLS    PTCLDY    66  64  93 CALM      29.86S FOG
POUGHKEEPSIE   PTCLDY    70  68  93 CALM      29.88F
NEWBURGH       CLEAR     72  70  94 CALM      29.92
MONTGOMERY     CLEAR     69  68  96 CALM      29.90F
WHITE PLAINS   CLEAR     74  72  93 W3        29.91S
ISLIP          CLEAR     74  72  93 SW5       29.88F
NEW YORK CITY  CLEAR     79  73  82 SW5       29.89F
CENTRAL PARK   CLEAR     78  72  81 VRB3      29.92F
$$

NYZ005>009-017-018-044>046-055-056-021000-
CENTRAL


CITY           SKY/WX    TMP DP  RH WIND       PRES   REMARKS
FULTON         MOCLDY    74  68  81 S6        29.83S
SYRACUSE       CLOUDY    76  68  76 S6        29.83S
ROME           PTCLDY    70  68  93 E3        29.86S
ELMIRA         MOCLDY    73  69  87 SW5       29.87S
BINGHAMTON     PTCLDY    70  67  90 SW8       29.91F
MONTICELLO     CLOUDY    64  64 100 CALM      29.95F VSB<1/4
$$

NYZ026>034-041>043-021000-
NORTH


CITY           SKY/WX    TMP DP  RH WIND       PRES   REMARKS
WATERTOWN      MOCLDY    75  66  73 S9G18     29.79F
FORT DRUM      NOT AVBL
MASSENA        CLOUDY    68  67  96 S3        29.78S
SARANAC LAKE   PTCLDY    57  56  96 CALM      29.87S
PLATTSBURGH    CLEAR     62  61  96 CALM      29.81S FOG
$$

NYZ001>004-010>016-019>021-021000-
WEST


CITY           SKY/WX    TMP DP  RH WIND       PRES   REMARKS
NIAGARA FALLS  CLEAR     70  68  93 SW9       29.82S
BUFFALO        MOCLDY    72  69  90 SW9       29.83S
DUNKIRK        MOCLDY    73  70  90 SW9       29.86R
JAMESTOWN      CLOUDY    70  66  88 S8        29.92S
WELLSVILLE     MOCLDY    70  67  90 SW7       29.95S
ROCHESTER      MOCLDY    71  68  90 CALM      29.83R
PENN YAN       CLOUDY    72  68  87 CALM      29.87S
$$

             KEY
       WCI = WIND CHILL INDEX
       VSB = VISIBILITY
       HX  = HEAT INDEX
$$


USA.gov is the U.S. government's official web portal to all federal, state and local government web resources and services.